Weather History for The Dalles, OR

Change the Weather History Date:

Sunday, May 12, 2013

  Actual Average Record
Temperature  
Mean Temperature 69 °F -  
Max Temperature 77 °F 74 °F 92 °F (1949)
Min Temperature 63 °F 47 °F 34 °F (1985)
Cooling Degree Days 4    
Growing Degree Days 19 (Base 50)    
Moisture  
Dew Point 53 °F    
Average Humidity 54    
Maximum Humidity 67    
Minimum Humidity 43    
Precipitation  
Precipitation 0.00 in - - ()
Sea Level Pressure  
Sea Level Pressure 30.01 in    
Wind  
Wind Speed 11 mph (WNW)    
Max Wind Speed 24 mph    
Max Gust Speed 36 mph    
Visibility 10 miles    
Events      
Averages and records for this station are not official NWS values.
T = Trace of Precipitation, MM = Missing Value Source: NWS Daily Summary

Daily Weather History Graph

Daily Weather History Graph

Search for Another Location

Airport:

Trip Planner

Search our weather history database for the weather conditions in past years. The results will help you decide how hot, cold, wet, or windy it might be!

Date:

Astronomy

May. 12, 2013 Rise Set
Actual Time 5:36 AM PDT 8:25 PM PDT
Civil Twilight 5:02 AM PDT 9:00 PM PDT
Nautical Twilight 4:18 AM PDT 9:44 PM PDT
Astronomical Twilight 3:27 AM PDT 10:35 PM PDT
Moon 7:34 AM PDT (5/12) 10:58 PM PDT (5/12)
Length of Visible Light 15h 57m
Length of Day
14h 49m
Waxing Crescent, 7% of the Moon is Illuminated
May 12
Waxing Crescent
May 17
First Quarter
May 24
Full
May 31
Last Quarter
Jun 8
New

Hourly Weather History & Observations

Time (PDT) Temp. Dew Point Humidity Pressure Visibility Wind Dir Wind Speed Gust Speed Precip Events Conditions
12:53 AM 73.0 °F 51.1 °F 46% 29.99 in 10.0 mi Variable 6.9 mph 17.3 mph N/A   Clear
1:53 AM 70.0 °F 51.1 °F 51% 30.00 in 10.0 mi Variable 4.6 mph - N/A   Clear
2:53 AM 66.9 °F 52.0 °F 59% 30.00 in 10.0 mi NW 6.9 mph - N/A   Clear
3:53 AM 69.1 °F 53.1 °F 57% 30.00 in 10.0 mi West 10.4 mph 16.1 mph N/A   Clear
4:53 AM 69.1 °F 54.0 °F 58% 30.00 in 10.0 mi West 16.1 mph - N/A   Clear
5:53 AM 68.0 °F 55.0 °F 63% 30.01 in 10.0 mi West 13.8 mph - N/A   Clear
6:53 AM 70.0 °F 55.9 °F 61% 30.02 in 10.0 mi West 8.1 mph - N/A   Clear
7:53 AM 72.0 °F 55.9 °F 57% 30.03 in 10.0 mi WNW 11.5 mph 19.6 mph N/A   Clear
8:53 AM 72.0 °F 55.9 °F 57% 30.03 in 10.0 mi NNW 12.7 mph 17.3 mph N/A   Clear
9:53 AM 73.9 °F 55.9 °F 53% 30.03 in 10.0 mi WNW 13.8 mph 25.3 mph N/A   Clear
10:53 AM 73.0 °F 55.0 °F 53% 30.04 in 10.0 mi NW 24.2 mph 35.7 mph N/A   Clear
11:53 AM 72.0 °F 55.0 °F 55% 30.04 in 10.0 mi NW 18.4 mph 29.9 mph N/A   Clear
12:53 PM 75.9 °F 55.0 °F 48% 30.04 in 10.0 mi WNW 16.1 mph 24.2 mph N/A   Clear
1:53 PM 73.9 °F 55.9 °F 53% 30.04 in 10.0 mi NNW 16.1 mph - N/A   Scattered Clouds
2:53 PM 75.9 °F 54.0 °F 46% 30.02 in 10.0 mi Variable 3.5 mph - N/A   Clear
3:53 PM 75.9 °F 52.0 °F 43% 29.99 in 10.0 mi WNW 11.5 mph 19.6 mph N/A   Clear
4:53 PM 73.9 °F 52.0 °F 46% 29.98 in 10.0 mi WNW 19.6 mph 28.8 mph N/A   Clear
5:53 PM 72.0 °F 50.0 °F 46% 29.99 in 10.0 mi NW 15.0 mph 24.2 mph N/A   Clear
6:53 PM 71.1 °F 48.9 °F 45% 29.97 in 10.0 mi NW 19.6 mph 32.2 mph N/A   Clear
7:53 PM 69.1 °F 50.0 °F 51% 29.99 in 10.0 mi NW 8.1 mph 18.4 mph N/A   Clear
8:53 PM 68.0 °F 48.9 °F 50% 30.01 in 10.0 mi NW 13.8 mph 21.9 mph N/A   Clear
9:53 PM 64.9 °F 51.1 °F 61% 30.04 in 10.0 mi WNW 17.3 mph - N/A   Clear
10:53 PM 63.0 °F 52.0 °F 67% 30.04 in 10.0 mi West 11.5 mph - N/A   Clear
11:53 PM 63.0 °F 52.0 °F 67% 30.03 in 10.0 mi West 6.9 mph - N/A   Clear